| time (UTC) | temp C | wind direction | speed KPH | gust KPH | rain 1hr cm | rain 24hr cm | rain mn cm | humidity % | barometer mb |
| 20260504150518 | 18 | 7 | 1.6 | 4.8 | 0.00 | 0.00 | 0.00 | 68 | 1015.6 |
| 20260504130517 | 16 | 212 | 1.6 | 4.8 | 0.00 | 0.00 | 0.00 | 68 | 1016.0 |
| 20260504110516 | 12 | 196 | 1.6 | 3.2 | 0.00 | 0.00 | 0.00 | 78 | 1016.9 |
| 20260504100517 | 12 | 201 | 1.6 | 3.2 | 0.00 | 0.00 | 0.00 | 77 | 1016.7 |
| 20260504081516 | 11 | 191 | 1.6 | 6.4 | 0.00 | 0.00 | 0.00 | 75 | 1016.8 |
| 20260504080516 | 11 | 287 | 1.6 | 6.4 | 0.00 | 0.00 | 0.00 | 74 | 1016.8 |
| 20260504050516 | 11 | 336 | 1.6 | 3.2 | 0.00 | 0.00 | 0.00 | 71 | 1016.7 |
| 20260504045516 | 11 | 337 | 1.6 | 3.2 | 0.00 | 0.00 | 0.00 | 71 | 1016.7 |
| 20260504044516 | 11 | 345 | 1.6 | 3.2 | 0.00 | 0.00 | 0.00 | 70 | 1016.7 |
| 20260504043517 | 11 | 349 | 1.6 | 3.2 | 0.00 | 0.00 | 0.00 | 69 | 1016.7 |
| 20260504042516 | 11 | 350 | 1.6 | 3.2 | 0.00 | 0.00 | 0.00 | 67 | 1016.5 |
| 20260504041517 | 11 | 347 | 1.6 | 3.2 | 0.00 | 0.00 | 0.00 | 67 | 1016.4 |
| 20260504040557 | 11 | 342 | 1.6 | 3.2 | 0.00 | 0.00 | 0.00 | 67 | 1016.4 |
| 20260504035517 | 11 | 342 | 1.6 | 3.2 | 0.00 | 0.00 | 0.00 | 69 | 1016.3 |
| 20260504034517 | 11 | 18 | 1.6 | 3.2 | 0.00 | 0.00 | 0.00 | 68 | 1016.3 |
| 20260504033517 | 11 | 343 | 1.6 | 3.2 | 0.00 | 0.00 | 0.00 | 69 | 1016.3 |
| 20260504032518 | 11 | 356 | 1.6 | 3.2 | 0.00 | 0.00 | 0.00 | 69 | 1016.3 |
| 20260504031518 | 11 | 347 | 1.6 | 3.2 | 0.00 | 0.00 | 0.00 | 69 | 1016.1 |
| 20260504030538 | 11 | 349 | 1.6 | 3.2 | 0.00 | 0.00 | 0.00 | 69 | 1016.2 |
| 20260504025518 | 11 | 3 | 1.6 | 3.2 | 0.00 | 0.00 | 0.00 | 69 | 1016.2 |
| 20260504024518 | 11 | 356 | 1.6 | 3.2 | 0.00 | 0.00 | 0.00 | 70 | 1016.2 |
| 20260504023536 | 11 | 353 | 1.6 | 3.2 | 0.00 | 0.00 | 0.00 | 70 | 1016.2 |
| 20260504022536 | 11 | 346 | 1.6 | 3.2 | 0.00 | 0.00 | 0.00 | 71 | 1016.2 |
| 20260504021536 | 11 | 1 | 1.6 | 3.2 | 0.00 | 0.00 | 0.00 | 73 | 1016.2 |
| 20260504020516 | 11 | 340 | 1.6 | 4.8 | 0.00 | 0.00 | 0.00 | 75 | 1016.1 |
| 20260504015516 | 11 | 347 | 1.6 | 3.2 | 0.00 | 0.00 | 0.00 | 73 | 1016.1 |
| 20260504014516 | 12 | 10 | 1.6 | 3.2 | 0.00 | 0.00 | 0.00 | 72 | 1016.0 |
| 20260504013516 | 12 | 22 | 1.6 | 3.2 | 0.00 | 0.00 | 0.00 | 71 | 1015.9 |
| 20260504012517 | 12 | 8 | 1.6 | 3.2 | 0.00 | 0.00 | 0.00 | 71 | 1015.9 |
| 20260504011517 | 12 | 25 | 1.6 | 3.2 | 0.00 | 0.00 | 0.00 | 69 | 1015.8 |
| 20260504010517 | 12 | 18 | 1.6 | 3.2 | 0.00 | 0.00 | 0.00 | 68 | 1015.7 |
| 20260504005537 | 12 | 7 | 1.6 | 3.2 | 0.00 | 0.00 | 0.00 | 67 | 1015.7 |
| 20260504004517 | 12 | 7 | 1.6 | 3.2 | 0.00 | 0.00 | 0.00 | 66 | 1015.5 |
| 20260504003518 | 12 | 14 | 1.6 | 3.2 | 0.00 | 0.00 | 0.00 | 64 | 1015.2 |
| 20260504002518 | 12 | 42 | 1.6 | 3.2 | 0.00 | 0.00 | 0.00 | 62 | 1015.1 |
| 20260504001518 | 13 | 18 | 1.6 | 3.2 | 0.00 | 0.00 | 0.00 | 62 | 1015.0 |
| 20260504000518 | 13 | 54 | 1.6 | 3.2 | 0.00 | 0.00 | 0.00 | 61 | 1015.0 |
| 20260503235518 | 13 | 57 | 1.6 | 3.2 | 0.00 | 0.00 | 0.00 | 61 | 1014.9 |
| 20260503234518 | 13 | 304 | 1.6 | 3.2 | 0.00 | 0.00 | 0.00 | 57 | 1014.9 |
| 20260503233518 | 13 | 271 | 0.0 | 3.2 | 0.00 | 0.00 | 0.00 | 56 | 1014.9 |
| 20260503232519 | 13 | 192 | 1.6 | 3.2 | 0.00 | 0.00 | 0.00 | 58 | 1014.8 |
| 20260503231519 | 13 | 216 | 0.0 | 3.2 | 0.00 | 0.00 | 0.00 | 55 | 1014.7 |
| 20260503230518 | 14 | 300 | 1.6 | 3.2 | 0.00 | 0.00 | 0.00 | 54 | 1014.7 |
| 20260503225516 | 14 | 230 | 0.0 | 3.2 | 0.00 | 0.00 | 0.00 | 53 | 1014.7 |
| 20260503224536 | 14 | 242 | 0.0 | 3.2 | 0.00 | 0.00 | 0.00 | 49 | 1014.7 |
| 20260503223516 | 14 | 257 | 0.0 | 3.2 | 0.00 | 0.00 | 0.00 | 48 | 1014.6 |
| 20260503222536 | 15 | 66 | 0.0 | 1.6 | 0.00 | 0.00 | 0.00 | 48 | 1014.6 |
| 20260503221516 | 15 | 275 | 1.6 | 4.8 | 0.00 | 0.00 | 0.00 | 48 | 1014.6 |
| 20260503220516 | 15 | 299 | 0.0 | 3.2 | 0.00 | 0.00 | 0.00 | 46 | 1014.7 |
| 20260503215517 | 15 | 300 | 0.0 | 3.2 | 0.00 | 0.00 | 0.00 | 46 | 1014.7 |
| 20260503214517 | 15 | 281 | 0.0 | 3.2 | 0.00 | 0.00 | 0.00 | 44 | 1014.6 |
| 20260503213517 | 15 | 293 | 0.0 | 4.8 | 0.00 | 0.00 | 0.00 | 44 | 1014.6 |
| 20260503212517 | 15 | 354 | 0.0 | 3.2 | 0.00 | 0.00 | 0.00 | 45 | 1014.5 |
| 20260503211518 | 15 | 65 | 0.0 | 3.2 | 0.00 | 0.00 | 0.00 | 44 | 1014.5 |
| 20260503210518 | 15 | 58 | 1.6 | 4.8 | 0.00 | 0.00 | 0.00 | 44 | 1014.5 |
| 20260503205518 | 15 | 31 | 1.6 | 4.8 | 0.00 | 0.00 | 0.00 | 42 | 1014.4 |
| 20260503204518 | 15 | 62 | 1.6 | 4.8 | 0.00 | 0.00 | 0.00 | 42 | 1014.3 |
| 20260503203538 | 15 | 15 | 0.0 | 3.2 | 0.00 | 0.00 | 0.00 | 43 | 1014.5 |
| 20260503202518 | 15 | 301 | 1.6 | 6.4 | 0.00 | 0.00 | 0.00 | 41 | 1014.6 |
| 20260503201515 | 15 | 313 | 1.6 | 6.4 | 0.00 | 0.00 | 0.00 | 42 | 1014.7 |
| 20260503200536 | 15 | 277 | 0.0 | 3.2 | 0.00 | 0.00 | 0.00 | 41 | 1014.7 |
| 20260503195516 | 15 | 256 | 1.6 | 3.2 | 0.00 | 0.00 | 0.00 | 42 | 1014.8 |
| 20260503194516 | 15 | 230 | 1.6 | 4.8 | 0.00 | 0.00 | 0.00 | 41 | 1014.8 |
| 20260503193516 | 15 | 217 | 1.6 | 6.4 | 0.00 | 0.00 | 0.00 | 41 | 1014.8 |
| 20260503192516 | 15 | 190 | 1.6 | 6.4 | 0.00 | 0.00 | 0.00 | 42 | 1014.9 |
| 20260503191517 | 15 | 219 | 1.6 | 4.8 | 0.00 | 0.00 | 0.00 | 41 | 1015.0 |
| 20260503190517 | 15 | 197 | 1.6 | 4.8 | 0.00 | 0.00 | 0.00 | 42 | 1015.1 |
| 20260503185537 | 16 | 191 | 1.6 | 3.2 | 0.00 | 0.00 | 0.00 | 40 | 1015.3 |
| 20260503184517 | 16 | 205 | 0.0 | 4.8 | 0.00 | 0.00 | 0.00 | 42 | 1015.3 |
| 20260503183517 | 16 | 204 | 1.6 | 4.8 | 0.00 | 0.00 | 0.00 | 42 | 1015.3 |
| 20260503182517 | 16 | 193 | 1.6 | 6.4 | 0.00 | 0.00 | 0.00 | 42 | 1015.3 |
| 20260503181518 | 16 | 183 | 1.6 | 6.4 | 0.00 | 0.00 | 0.00 | 43 | 1015.4 |
| 20260503180518 | 16 | 217 | 1.6 | 4.8 | 0.00 | 0.00 | 0.00 | 44 | 1015.3 |
| 20260503175518 | 16 | 203 | 1.6 | 6.4 | 0.00 | 0.00 | 0.00 | 44 | 1015.3 |
| 20260503174518 | 16 | 229 | 1.6 | 6.4 | 0.00 | 0.00 | 0.00 | 42 | 1015.3 |
| 20260503173538 | 16 | 201 | 1.6 | 6.4 | 0.00 | 0.00 | 0.00 | 41 | 1015.3 |
| 20260503172519 | 16 | 212 | 1.6 | 6.4 | 0.00 | 0.00 | 0.00 | 41 | 1015.3 |
| 20260503171556 | 16 | 329 | 1.6 | 4.8 | 0.00 | 0.00 | 0.00 | 42 | 1015.4 |
| 20260503170516 | 16 | 340 | 1.6 | 6.4 | 0.00 | 0.00 | 0.00 | 41 | 1015.4 |